Home   Weather   Saguenay   Past weeks

Flag for Canada Past Weather in Saguenay, Quebec, Canada — Yesterday and Last 2 Weeks

Now
20 °F

Cold.


Feels Like: 15 °F
Forecast: 18 / 25 °F
Wind: 3 mph from West

Location: Jonquiere Airport

Current Time: Dec 6, 2016 at 1:05:31 am

Latest Report: Dec 6, 2016 at 12:00 am


Visibility: N/A

Pressure: 30.05 "Hg

Humidity: 84%

Dew Point: 16 °F

Location of SaguenayLocation

Past Weather in Saguenay — Graph

°F

Saguenay Temperature Yesterday

Maximum temperature yesterday: 19 °F (at 2:00 pm)
Minimum temperature yesterday: 15 °F (at 6:00 am)
Average temperature yesterday: 17 °F

High & Low Weather Summary for the Past Weeks

 TemperatureHumidityPressure
High41 °F (Nov 21, 12:00 pm)100% (Nov 22, 5:00 am)30.43 "Hg (Nov 22, 5:00 am)
Low15 °F (Dec 5, 6:00 am)64% (Nov 23, 12:00 pm)29.15 "Hg (Nov 21, 2:00 am)
Average29 °F90%29.99 "Hg
* Reported Nov 20 11:00 pm — Dec 5 11:00 pm, Saguenay, Weather by CustomWeather, © 2016

Note: Actual official high and low records may vary slightly from our data, if they occured in-between our weather recording intervals... More about our weather records

Advertising

Saguenay Weather History for the Previous 24 Hours

Scroll right to see more
 ConditionsComfort  
Time TempWeatherWind HumidityBarometerVisibility
11:00 pm
Mon, Dec 5
18 °FCold.3 mph91%30.03 "HgN/A
10:00 pm19 °FCold.2 mph86%30.02 "HgN/A
9:00 pm19 °FCold.3 mph88%30.01 "HgN/A
8:00 pm19 °FCold.3 mph88%30.00 "HgN/A
7:00 pm18 °FCold.2 mph88%29.99 "HgN/A
6:00 pm18 °FCold.3 mph90%29.99 "HgN/A
5:00 pm18 °FCold.5 mph89%30.00 "HgN/A
4:00 pm18 °FCold.5 mph89%29.99 "HgN/A
3:00 pm19 °FCold.3 mph86%29.97 "HgN/A
2:00 pm19 °FCold.2 mph84%29.96 "HgN/A
1:00 pm18 °FCold.No wind84%29.98 "HgN/A
12:00 pm18 °FCold.3 mph85%30.00 "HgN/A
11:00 am16 °FCold.3 mph86%30.03 "HgN/A
10:00 am15 °FCold.6 mph87%30.09 "HgN/A
9:00 am15 °FCold.2 mph89%30.08 "HgN/A
8:00 am15 °FCold.3 mph91%30.10 "HgN/A
7:00 am15 °FCold.3 mph90%30.12 "HgN/A
6:00 am15 °FCold.5 mph91%30.13 "HgN/A
5:00 am15 °FCold.3 mph90%30.15 "HgN/A
4:00 am16 °FCold.2 mph90%30.17 "HgN/A
3:00 am16 °FCold.3 mph90%30.17 "HgN/A
2:00 am16 °FCold.2 mph91%30.20 "HgN/A
1:00 am16 °FCold.1 mph92%30.21 "HgN/A
Weather by CustomWeather, © 2016

See weather overviewHow to use our weather pages